KC5JIM Weather Reports


Display with metric or nautical units.
time (UTC)temp
F
wind
direction
speed
MPH
gust
MPH
rain 1hr
in
rain 24hr
in
rain mn
in
humidity
%
barometer
mb
20260901225117 92 161 5.0 13.0 0.00 0.00 0.00 36 1009.4
20260901224613 91 184 7.0 13.0 0.00 0.00 0.00 37 1009.3
20260901224109 92 210 13.0 14.0 0.00 0.00 0.00 36 1009.6
20260901223605 91 190 4.0 8.0 0.00 0.00 0.00 35 1009.6
20260901223101 91 158 7.0 13.0 0.00 0.00 0.00 36 1009.5
20260901222817 90 244 3.0 9.0 0.00 0.00 0.00 37 1009.7
20260901222053 90 191 7.0 11.0 0.00 0.00 0.00 36 1009.7
20260901221549 91 193 11.0 17.0 0.00 0.00 0.00 36 1009.7
20260901221045 91 192 6.0 8.0 0.00 0.00 0.00 36 1009.8
20260901220541 90 101 4.0 11.0 0.00 0.00 0.00 37 1010.0
20260901220037 91 174 6.0 13.0 0.00 0.00 0.00 36 1009.9
20260901215533 90 199 2.0 8.0 0.00 0.00 0.00 37 1010.0
20260901215028 90 153 5.0 9.0 0.00 0.00 0.00 37 1010.0
20260901214524 91 198 8.0 11.0 0.00 0.00 0.00 37 1010.1
20260901214020 91 157 5.0 8.0 0.00 0.00 0.00 36 1009.9
20260901213741 90 215 4.0 11.0 0.00 0.00 0.00 37 1010.4
20260901213234 90 204 4.0 13.0 0.00 0.00 0.00 39 1010.2
20260901212508 91 125 4.0 13.0 0.00 0.00 0.00 38 1010.2
20260901212005 89 48 0.0 8.0 0.00 0.00 0.00 38 1010.7
20260901211500 89 103 9.0 11.0 0.00 0.00 0.00 38 1010.6
20260901211220 89 52 3.0 9.0 0.00 0.00 0.00 38 1010.9
20260901210452 90 202 3.0 13.0 0.00 0.00 0.00 38 1010.8
20260901205948 89 72 8.0 10.0 0.00 0.00 0.00 38 1011.0
20260901205444 89 152 12.0 18.0 0.00 0.00 0.00 38 1011.0
20260901204940 89 102 4.0 9.0 0.00 0.00 0.00 38 1011.0
20260901204436 89 169 4.0 14.0 0.00 0.00 0.00 39 1010.9
20260901203932 89 164 3.0 10.0 0.00 0.00 0.00 38 1011.2
20260901203650 89 169 9.0 12.0 0.00 0.00 0.00 38 1011.1
20260901202924 88 152 4.0 6.0 0.00 0.00 0.00 38 1011.1
20260901202420 88 181 3.0 5.0 0.00 0.00 0.00 38 1011.4
20260901202139 89 84 4.0 7.0 0.00 0.00 0.00 38 1011.3
20260901201412 88 98 7.0 8.0 0.00 0.00 0.00 39 1011.5
20260901201130 89 20 4.0 6.0 0.00 0.00 0.00 39 1011.6
20260901200405 88 0 2.0 8.0 0.00 0.00 0.00 40 1011.9
20260901195900 88 111 5.0 9.0 0.00 0.00 0.00 40 1011.7
20260901195619 87 173 2.0 4.0 0.00 0.00 0.00 40 1011.8
20260901194852 87 93 2.0 12.0 0.00 0.00 0.00 41 1012.0
20260901194609 88 118 3.0 9.0 0.00 0.00 0.00 40 1011.7
20260901193844 87 64 6.0 7.0 0.00 0.00 0.00 40 1012.0
20260901193340 87 159 3.0 11.0 0.00 0.00 0.00 41 1012.1
20260901192836 87 160 7.0 8.0 0.00 0.00 0.00 41 1012.2
20260901192332 87 213 4.0 10.0 0.00 0.00 0.00 41 1012.2
20260901192048 87 136 6.0 9.0 0.00 0.00 0.00 40 1012.0
20260901191546 87 166 3.0 7.0 0.00 0.00 0.00 41 1012.1
20260901190820 87 153 6.0 8.0 0.00 0.00 0.00 41 1012.1
20260901190316 85 100 2.0 4.0 0.00 0.00 0.00 41 1012.2
20260901185812 86 105 6.0 8.0 0.00 0.00 0.00 41 1012.3
20260901185308 85 154 4.0 10.0 0.00 0.00 0.00 42 1012.6
20260901184804 86 142 5.0 8.0 0.00 0.00 0.00 42 1012.6
20260901184300 86 80 4.0 8.0 0.00 0.00 0.00 42 1012.4
20260901183756 87 93 4.0 5.0 0.00 0.00 0.00 40 1012.7
20260901183252 87 289 7.0 7.0 0.00 0.00 0.00 41 1012.5
20260901182748 86 74 2.0 7.0 0.00 0.00 0.00 42 1012.8
20260901182244 86 83 2.0 8.0 0.00 0.00 0.00 42 1012.5
20260901181740 85 86 7.0 11.0 0.00 0.00 0.00 42 1012.7
20260901181236 85 95 4.0 7.0 0.00 0.00 0.00 43 1012.8
20260901180732 85 83 5.0 11.0 0.00 0.00 0.00 43 1012.8
20260901180228 84 13 0.0 4.0 0.00 0.00 0.00 42 1012.8
20260901175724 85 165 5.0 10.0 0.00 0.00 0.00 42 1012.9
20260901175220 83 238 0.0 2.0 0.00 0.00 0.00 42 1013.1
20260901174716 84 69 2.0 5.0 0.00 0.00 0.00 43 1012.8
20260901174212 84 164 4.0 6.0 0.00 0.00 0.00 43 1012.9
20260901173708 85 129 3.0 8.0 0.00 0.00 0.00 43 1012.8
20260901173424 84 152 4.0 5.0 0.00 0.00 0.00 42 1012.9
20260901172922 84 290 4.0 6.0 0.00 0.00 0.00 43 1012.9
20260901172420 83 139 2.0 4.0 0.00 0.00 0.00 44 1013.1
20260901171652 83 187 0.0 5.0 0.00 0.00 0.00 45 1013.2
20260901171148 84 131 6.0 8.0 0.00 0.00 0.00 45 1013.1
20260901170644 83 235 1.0 5.0 0.00 0.00 0.00 46 1013.2
20260901170141 82 203 1.0 3.0 0.00 0.00 0.00 46 1013.2
20260901165636 83 181 2.0 4.0 0.00 0.00 0.00 48 1013.2
20260901165132 82 95 2.0 3.0 0.00 0.00 0.00 46 1013.5
20260901164628 82 147 4.0 4.0 0.00 0.00 0.00 49 1013.2
20260901164124 82 158 2.0 4.0 0.00 0.00 0.00 50 1013.2
20260901163620 82 145 3.0 4.0 0.00 0.00 0.00 51 1013.0
20260901163116 82 234 3.0 4.0 0.00 0.00 0.00 54 1013.0
20260901162612 81 135 0.0 4.0 0.00 0.00 0.00 55 1013.1
20260901162108 81 171 2.0 4.0 0.00 0.00 0.00 55 1013.1
20260901161604 80 201 2.0 3.0 0.00 0.00 0.00 58 1013.4
20260901161101 81 73 1.0 4.0 0.00 0.00 0.00 55 1013.0
20260901160556 80 253 1.0 2.0 0.00 0.00 0.00 57 1013.1
20260901160052 80 198 3.0 4.0 0.00 0.00 0.00 58 1013.3
20260901155809 78 217 0.0 4.0 0.00 0.00 0.00 59 1013.5
20260901155044 80 256 1.0 4.0 0.00 0.00 0.00 58 1013.3
20260901154540 79 260 0.0 3.0 0.00 0.00 0.00 59 1013.4
20260901154036 80 319 0.0 2.0 0.00 0.00 0.00 63 1013.6
20260901153532 79 187 2.0 4.0 0.00 0.00 0.00 62 1013.3
20260901153028 78 258 2.0 4.0 0.00 0.00 0.00 63 1013.5
20260901152524 78 14 2.0 4.0 0.00 0.00 0.00 61 1013.4
20260901152020 78 287 2.0 4.0 0.00 0.00 0.00 62 1013.4
20260901151516 78 280 3.0 5.0 0.00 0.00 0.00 63 1013.5
20260901151234 77 226 1.0 4.0 0.00 0.00 0.00 65 1013.7
20260901150509 78 240 3.0 6.0 0.00 0.00 0.00 65 1013.6
20260901150004 77 252 0.0 2.0 0.00 0.00 0.00 66 1013.6
20260901145501 78 308 1.0 5.0 0.00 0.00 0.00 66 1013.4
20260901144957 76 161 1.0 2.0 0.00 0.00 0.00 70 1013.9
20260901144453 76 177 2.0 3.0 0.00 0.00 0.00 71 1013.7
20260901143949 75 84 1.0 2.0 0.00 0.00 0.00 73 1013.7
20260901143445 74 150 2.0 3.0 0.00 0.00 0.00 74 1013.7
20260901142941 74 275 1.0 4.0 0.00 0.00 0.00 78 1013.9
20260901142437 73 333 0.0 3.0 0.00 0.00 0.00 80 1013.8
20260901141933 73 272 4.0 6.0 0.00 0.00 0.00 81 1013.7
20260901141429 73 299 2.0 3.0 0.00 0.00 0.00 80 1013.6
20260901140925 72 260 1.0 2.0 0.00 0.00 0.00 81 1013.8
20260901140421 71 264 1.0 3.0 0.00 0.00 0.00 83 1013.7
20260901135917 71 251 1.0 4.0 0.00 0.00 0.00 83 1013.8
20260901135413 72 267 2.0 4.0 0.00 0.00 0.00 82 1013.7
20260901134909 73 261 0.0 3.0 0.00 0.00 0.00 80 1013.5
20260901134405 72 329 0.0 2.0 0.00 0.00 0.00 81 1013.4
20260901133901 72 269 0.0 2.0 0.00 0.00 0.00 82 1013.5
20260901133357 71 132 1.0 2.0 0.00 0.00 0.00 82 1013.7
20260901132853 71 85 3.0 5.0 0.00 0.00 0.00 83 1013.6
20260901132610 70 347 0.0 2.0 0.00 0.00 0.00 84 1013.5
20260901131845 70 87 2.0 4.0 0.00 0.00 0.00 85 1013.5
20260901131341 69 43 2.0 4.0 0.00 0.00 0.00 86 1013.2
20260901131059 69 24 2.0 6.0 0.00 0.00 0.00 87 1013.3
20260901130333 69 50 2.0 4.0 0.00 0.00 0.00 87 1013.2
20260901125829 69 40 2.0 4.0 0.00 0.00 0.00 88 1013.0
20260901125325 69 44 2.0 4.0 0.00 0.00 0.00 88 1013.1
20260901124821 69 26 1.0 5.0 0.00 0.00 0.00 89 1012.9
20260901124317 68 98 1.0 2.0 0.00 0.00 0.00 89 1013.0
20260901123813 69 32 0.0 3.0 0.00 0.00 0.00 89 1012.7
20260901123309 69 331 1.0 3.0 0.00 0.00 0.00 89 1012.6
20260901122805 69 46 0.0 3.0 0.00 0.00 0.00 89 1012.7
20260901122524 69 22 2.0 4.0 0.00 0.00 0.00 89 1012.8
20260901121757 69 28 2.0 4.0 0.00 0.00 0.00 90 1012.6
20260901121253 69 117 0.0 3.0 0.00 0.00 0.00 90 1012.6
20260901120749 69 43 2.0 4.0 0.00 0.00 0.00 90 1012.7
20260901120245 69 352 2.0 4.0 0.00 0.00 0.00 91 1012.6
20260901115741 69 339 2.0 3.0 0.00 0.00 0.00 91 1012.8
20260901115236 69 70 3.0 5.0 0.00 0.00 0.00 91 1012.8
20260901114732 68 17 3.0 4.0 0.00 0.00 0.00 91 1012.7
20260901114228 68 34 2.0 4.0 0.00 0.00 0.00 91 1012.8
20260901113724 68 0 2.0 5.0 0.00 0.00 0.00 92 1012.9
20260901113220 68 336 2.0 3.0 0.00 0.00 0.00 92 1013.1
20260901112716 68 339 0.0 2.0 0.00 0.00 0.00 92 1012.9
20260901112703 68 7 1.0 3.0 0.00 0.00 0.00 92 1013.2
20260901111708 68 24 1.0 4.0 0.00 0.00 0.00 92 1012.9
20260901111204 68 351 0.0 4.0 0.00 0.00 0.00 92 1012.9
20260901111152 68 5 0.0 2.0 0.00 0.00 0.00 92 1013.1
20260901110156 68 279 0.0 3.0 0.00 0.00 0.00 91 1013.2
20260901105652 68 213 1.0 3.0 0.00 0.00 0.00 91 1013.3
20260901105148 68 293 1.0 3.0 0.00 0.00 0.00 91 1013.2
20260901104644 68 59 2.0 3.0 0.00 0.00 0.00 91 1013.2
20260901104140 68 18 2.0 3.0 0.00 0.00 0.00 91 1013.1
20260901103636 68 79 1.0 2.0 0.00 0.00 0.00 91 1013.3
20260901103132 68 156 0.0 2.0 0.00 0.00 0.00 91 1013.3
20260901102850 68 84 1.0 3.0 0.00 0.00 0.00 90 1013.1
20260901102124 68 134 0.0 2.0 0.00 0.00 0.00 90 1013.0
20260901101621 68 44 0.0 1.0 0.00 0.00 0.00 90 1012.9
20260901101116 68 83 0.0 3.0 0.00 0.00 0.00 89 1013.0
20260901101101 69 315 0.0 1.0 0.00 0.00 0.00 89 1013.0
20260901100330 69 284 0.0 1.0 0.00 0.00 0.00 89 1013.0
20260901095605 69 309 0.0 2.0 0.00 0.00 0.00 88 1013.2
20260901095320 69 286 2.0 2.0 0.00 0.00 0.00 87 1013.1
20260901094557 70 333 0.0 2.0 0.00 0.00 0.00 86 1013.3
20260901094053 70 340 2.0 2.0 0.00 0.00 0.00 87 1013.3
20260901093549 70 32 0.0 2.0 0.00 0.00 0.00 87 1013.2
20260901093045 70 302 1.0 2.0 0.00 0.00 0.00 85 1013.1
20260901092541 70 83 2.0 2.0 0.00 0.00 0.00 86 1013.3
20260901092037 69 64 2.0 2.0 0.00 0.00 0.00 88 1013.3
20260901091533 69 76 0.0 2.0 0.00 0.00 0.00 89 1013.4
20260901091029 69 44 0.0 3.0 0.00 0.00 0.00 89 1013.3
20260901090746 69 351 1.0 1.0 0.00 0.00 0.00 89 1013.3
20260901090021 69 226 0.0 2.0 0.00 0.00 0.00 89 1013.3
20260901085737 70 201 0.0 3.0 0.00 0.00 0.00 88 1013.2
20260901085012 70 242 0.0 2.0 0.00 0.00 0.00 88 1013.2
20260901084508 71 283 0.0 2.0 0.00 0.00 0.00 87 1013.2
20260901084004 71 269 0.0 1.0 0.00 0.00 0.00 86 1013.2
20260901083500 71 135 0.0 0.0 0.00 0.00 0.00 85 1013.2
20260901082956 71 96 1.0 3.0 0.00 0.00 0.00 85 1013.3
20260901082452 71 43 0.0 2.0 0.00 0.00 0.00 85 1013.2
20260901081948 71 54 0.0 2.0 0.00 0.00 0.00 86 1013.3
20260901081444 71 56 0.0 2.0 0.00 0.00 0.00 86 1013.2
20260901080940 71 89 0.0 1.0 0.00 0.00 0.00 87 1013.5
20260901080436 70 78 2.0 2.0 0.00 0.00 0.00 89 1013.5
20260901075932 70 304 0.0 0.0 0.00 0.00 0.00 88 1013.4
20260901075428 71 217 0.0 1.0 0.00 0.00 0.00 88 1013.5
20260901074924 71 168 1.0 2.0 0.00 0.00 0.00 88 1013.2
20260901074420 71 13 0.0 0.0 0.00 0.00 0.00 87 1013.1
20260901073916 71 13 0.0 2.0 0.00 0.00 0.00 87 1013.2
20260901073902 71 17 1.0 2.0 0.00 0.00 0.00 88 1013.4
20260901072908 71 6 0.0 2.0 0.00 0.00 0.00 88 1013.3
20260901072404 72 293 0.0 1.0 0.00 0.00 0.00 87 1013.4
20260901071900 71 352 0.0 0.0 0.00 0.00 0.00 86 1013.3
20260901071356 72 352 0.0 0.0 0.00 0.00 0.00 86 1013.3
20260901070852 72 9 0.0 1.0 0.00 0.00 0.00 86 1013.2
20260901070348 72 230 0.0 0.0 0.00 0.00 0.00 86 1013.6
20260901065844 72 44 0.0 1.0 0.00 0.00 0.45 85 1013.5
20260901065341 72 342 1.0 2.0 0.00 0.00 0.45 84 1013.4
20260901065059 72 322 0.0 2.0 0.00 0.00 0.45 84 1013.4
20260901064557 72 147 0.0 0.0 0.00 0.00 0.45 84 1013.2
20260901063829 72 155 0.0 2.0 0.00 0.00 0.45 84 1013.3
20260901063548 73 160 0.0 1.0 0.00 0.00 0.45 83 1013.4
20260901062821 73 287 0.0 2.0 0.00 0.00 0.45 82 1013.1
20260901062317 73 326 0.0 2.0 0.00 0.00 0.45 81 1013.0
20260901061813 73 49 1.0 2.0 0.00 0.00 0.45 81 1013.0
20260901061309 73 89 0.0 2.0 0.00 0.00 0.45 81 1013.1
20260901061027 73 89 0.0 2.0 0.00 0.00 0.45 81 1013.1
20260901060301 73 85 0.0 2.0 0.00 0.00 0.45 81 1013.0
20260901055253 74 23 0.0 2.0 0.00 0.00 0.45 80 1012.9
20260901054749 74 10 2.0 2.0 0.00 0.00 0.45 80 1012.7
20260901054245 74 11 2.0 3.0 0.00 0.00 0.45 81 1012.7
20260901053741 74 25 0.0 2.0 0.00 0.00 0.45 80 1012.8
20260901053237 74 6 2.0 4.0 0.00 0.00 0.45 81 1012.6
20260901052733 74 42 1.0 3.0 0.00 0.00 0.45 80 1012.6
20260901052229 74 30 1.0 3.0 0.00 0.00 0.45 80 1012.5
20260901051725 74 11 3.0 3.0 0.00 0.00 0.45 81 1012.7
20260901051221 73 16 2.0 2.0 0.00 0.00 0.45 81 1012.7
20260901050717 73 224 0.0 0.0 0.00 0.00 0.45 82 1012.5
20260901050434 73 224 0.0 1.0 0.00 0.00 0.45 82 1012.5
20260901045709 73 217 0.0 2.0 0.00 0.00 0.45 82 1012.8
20260901045425 73 206 0.0 3.0 0.00 0.00 0.45 82 1012.8
20260901044701 74 208 0.0 3.0 0.00 0.00 0.45 81 1012.6
20260901044157 74 162 0.0 2.0 0.00 0.00 0.45 80 1012.6
20260901043653 75 256 0.0 2.0 0.00 0.00 0.45 78 1012.4
20260901043149 75 243 0.0 2.0 0.00 0.00 0.45 76 1012.3
20260901042645 76 347 0.0 1.0 0.00 0.00 0.45 75 1012.1
20260901042141 76 356 2.0 4.0 0.00 0.00 0.45 75 1012.3
20260901041637 76 352 3.0 4.0 0.00 0.00 0.45 74 1012.2
20260901041353 76 340 2.0 4.0 0.00 0.00 0.45 73 1012.3
20260901040629 76 354 4.0 6.0 0.00 0.00 0.45 72 1012.4
20260901040124 77 352 6.0 7.0 0.00 0.00 0.45 71 1012.1
20260901035620 77 333 2.0 5.0 0.00 0.00 0.45 69 1011.8
20260901035116 77 37 0.0 4.0 0.00 0.00 0.45 69 1011.8
20260901034613 76 44 0.0 2.0 0.00 0.00 0.45 70 1012.2
20260901034108 76 142 0.0 2.0 0.00 0.00 0.45 70 1011.9
20260901033828 76 227 0.0 3.0 0.00 0.00 0.45 71 1012.1
20260901033321 76 208 2.0 3.0 0.00 0.00 0.45 71 1011.9
20260901032556 76 196 4.0 4.0 0.00 0.00 0.45 73 1012.1
20260901032317 76 170 2.0 3.0 0.00 0.00 0.45 74 1012.1
20260901031810 76 172 2.0 4.0 0.00 0.00 0.45 73 1012.1
20260901031045 76 156 2.0 2.0 0.00 0.00 0.45 73 1011.8
20260901030800 76 258 1.0 2.0 0.00 0.00 0.45 71 1011.8
20260901030036 76 19 0.0 2.0 0.00 0.00 0.45 71 1011.7
20260901025532 76 315 0.0 1.0 0.00 0.00 0.45 73 1011.7
20260901025028 76 202 0.0 1.0 0.00 0.00 0.45 71 1011.7
20260901024524 76 326 1.0 3.0 0.00 0.00 0.45 71 1011.6
20260901024020 76 351 3.0 5.0 0.00 0.00 0.45 71 1011.4
20260901023516 76 32 0.0 3.0 0.00 0.00 0.45 72 1011.6
20260901023012 76 323 3.0 3.0 0.00 0.00 0.45 71 1011.5
20260901022508 77 317 2.0 4.0 0.00 0.00 0.45 71 1011.5
20260901022226 77 304 1.0 3.0 0.00 0.00 0.45 70 1011.6
20260901021500 77 279 3.0 3.0 0.00 0.00 0.45 68 1011.3
20260901020956 77 306 1.0 2.0 0.00 0.00 0.45 69 1011.2
20260901020452 77 258 1.0 2.0 0.00 0.00 0.45 69 1011.4
20260901015948 77 239 0.0 2.0 0.00 0.00 0.45 69 1011.3
20260901015444 77 232 1.0 2.0 0.00 0.00 0.45 69 1011.1
20260901015433 77 273 0.0 1.0 0.00 0.00 0.45 70 1011.1
20260901014436 77 207 2.0 2.0 0.00 0.00 0.45 68 1010.9
20260901013932 78 315 0.0 1.0 0.00 0.00 0.45 67 1010.7
20260901013428 78 246 0.0 2.0 0.00 0.00 0.45 65 1010.5
20260901012924 78 254 2.0 3.0 0.00 0.00 0.45 65 1010.5
20260901012420 78 210 2.0 3.0 0.00 0.00 0.45 63 1010.5
20260901012405 78 201 1.0 2.0 0.00 0.00 0.45 63 1010.7
20260901011412 78 224 0.0 0.0 0.00 0.00 0.45 61 1010.7
20260901010908 78 217 0.0 2.0 0.00 0.00 0.45 61 1010.5
20260901010625 78 205 0.0 3.0 0.00 0.00 0.45 62 1010.4
20260901005901 79 209 0.0 4.0 0.00 0.00 0.45 63 1010.6
20260901005356 79 235 2.0 3.0 0.00 0.00 0.45 63 1010.5
20260901004853 79 175 0.0 3.0 0.00 0.00 0.45 61 1010.3
20260901004348 79 269 0.0 1.0 0.00 0.00 0.45 57 1010.3
20260901003844 79 4 0.0 2.0 0.00 0.00 0.45 58 1010.2
20260901003341 79 53 1.0 2.0 0.00 0.00 0.45 58 1010.4
20260901002836 80 102 2.0 2.0 0.00 0.00 0.45 56 1010.3
20260901002332 79 236 0.0 2.0 0.00 0.00 0.45 56 1010.4
20260901002320 80 153 1.0 4.0 0.00 0.00 0.45 58 1010.2
20260901001324 80 182 2.0 4.0 0.00 0.00 0.45 58 1010.3
20260901000820 80 248 4.0 6.0 0.00 0.00 0.45 56 1010.1
20260901000316 80 232 0.0 5.0 0.00 0.00 0.45 57 1010.4
20260831235813 79 278 0.0 4.0 0.00 0.00 0.45 57 1010.7
20260831235308 78 232 2.0 2.0 0.00 0.00 0.45 56 1010.3
20260831234805 80 294 2.0 5.0 0.00 0.00 0.45 57 1010.4
20260831234300 79 319 0.0 2.0 0.00 0.00 0.45 58 1010.1
20260831233756 78 27 0.0 3.0 0.00 0.00 0.45 58 1010.3
20260831233252 78 225 1.0 3.0 0.00 0.00 0.45 58 1010.1
20260831232749 77 263 2.0 4.0 0.00 0.00 0.45 60 1010.5
20260831232244 77 317 4.0 9.0 0.00 0.00 0.45 61 1010.2
20260831231740 77 266 6.0 9.0 0.00 0.00 0.45 63 1010.1
20260831231236 77 340 9.0 9.0 0.00 0.00 0.45 62 1009.8
20260831230733 76 289 3.0 10.0 0.00 0.00 0.45 63 1010.1
20260831230228 76 322 8.0 13.0 0.00 0.00 0.45 64 1010.2
20260831225724 76 330 6.0 10.0 0.00 0.00 0.45 65 1009.9
20260831225221 75 349 5.0 17.0 0.00 0.00 0.45 67 1010.5